Tracking 19562 objects as of 24-Mar-2019
HD Live streaming from Space Station
objects crossing your sky now

CHINASAT 2C (ZX 2C)

Track CHINASAT 2C (ZX 2C) now!
CHINASAT 2C (ZX 2C) is classified as:


NORAD ID: 41021
Int'l Code: 2015-063A
Perigee: 35,779.5 km
Apogee: 35,809.3 km
Inclination: 0.0 °
Period: 1,436.1 minutes
Semi major axis: 42165 km
RCS: Unknown
Launch date: November 3, 2015
Source: People's Republic of China (PRC)
Launch site: Xichang Space Center, China (XSC)

CHINASAT 2C (ZX 2C) is a Chinese geostationary satellite, believed to be a military communications spacecraft.
aabbcc
Your satellite tracking list
Your tracking list is empty




NASA's NSSDC Master Catalog

Two Line Element Set (TLE):
1 41021U 15063A   19082.90048830 -.00000347 +00000-0 +00000-0 0  9990
2 41021 000.0145 126.4937 0003537 250.8967 231.2599 01.00269481012518
Source of the keplerian elements: AFSPC